Time,TemperatureF,DewpointF,PressureIn,WindDirection,WindDirectionDegrees,WindSpeedMPH,WindSpeedGustMPH,Humidity,HourlyPrecipIn,Conditions,Clouds,dailyrainin,SoftwareType,DateUTC
2013-09-28 00:00:00,56.9,56.1,30.21,NNW,338,0.0,0.0,97,0.00,,---,0.00,VWS V14.01,2013-09-28 04:00:00,
2013-09-28 00:01:00,56.8,56.0,30.21,NNW,339,0.0,0.0,97,0.00,,---,0.00,VWS V14.01,2013-09-28 04:01:00,
2013-09-28 00:03:00,56.7,55.9,30.22,NNW,339,0.0,0.0,97,0.00,,---,0.00,VWS V14.01,2013-09-28 04:03:00,
2013-09-28 00:08:00,56.5,55.7,30.22,NNW,339,0.0,0.0,97,0.00,,---,0.00,VWS V14.01,2013-09-28 04:08:00,
2013-09-28 00:10:00,56.5,55.7,30.22,NNW,339,0.0,0.0,97,0.00,,---,0.00,VWS V14.01,2013-09-28 04:10:00,
2013-09-28 00:13:00,56.4,55.6,30.22,NNW,339,0.0,0.0,97,0.00,,---,0.00,VWS V14.01,2013-09-28 04:13:00,
2013-09-28 00:18:00,56.2,55.4,30.22,NNW,338,0.0,0.0,97,0.00,,---,0.00,VWS V14.01,2013-09-28 04:18:00,
2013-09-28 00:20:00,56.1,55.3,30.22,NNW,338,0.0,0.0,97,0.00,,---,0.00,VWS V14.01,2013-09-28 04:20:00,
2013-09-28 00:23:00,55.9,55.1,30.22,NNW,339,0.0,0.0,97,0.00,,---,0.00,VWS V14.01,2013-09-28 04:23:00,
2013-09-28 00:28:00,55.8,55.0,30.22,NNW,339,0.0,0.0,97,0.00,,---,0.00,VWS V14.01,2013-09-28 04:28:00,
2013-09-28 00:30:00,55.7,54.9,30.22,NNW,338,0.0,0.0,97,0.00,,---,0.00,VWS V14.01,2013-09-28 04:30:00,
2013-09-28 00:33:00,55.6,54.8,30.22,NNW,339,0.0,0.0,97,0.00,,---,0.00,VWS V14.01,2013-09-28 04:33:00,
2013-09-28 00:38:00,55.5,54.7,30.22,NNW,339,0.0,0.0,97,0.00,,---,0.00,VWS V14.01,2013-09-28 04:38:00,
2013-09-28 00:40:00,55.5,54.7,30.22,NNW,338,0.0,0.0,97,0.00,,---,0.00,VWS V14.01,2013-09-28 04:40:00,
2013-09-28 00:43:00,55.5,54.7,30.22,NNW,339,0.0,0.0,97,0.00,,---,0.00,VWS V14.01,2013-09-28 04:43:00,
2013-09-28 00:48:00,55.5,55.0,30.22,NNW,338,0.0,0.0,98,0.00,,---,0.00,VWS V14.01,2013-09-28 04:48:00,
2013-09-28 00:50:00,55.5,55.0,30.22,NNW,339,0.0,0.0,98,0.00,,---,0.00,VWS V14.01,2013-09-28 04:50:00,
2013-09-28 00:53:00,55.6,55.0,30.22,NNW,338,0.0,0.0,98,0.00,,---,0.00,VWS V14.01,2013-09-28 04:53:00,
2013-09-28 00:58:00,55.8,55.2,30.22,NNW,338,0.0,0.0,98,0.00,,---,0.00,VWS V14.01,2013-09-28 04:58:00,
2013-09-28 01:00:00,55.8,55.2,30.22,NNW,339,0.0,0.0,98,0.00,,---,0.00,VWS V14.01,2013-09-28 05:00:00,
2013-09-28 01:03:00,55.9,55.3,30.22,NNW,339,0.0,0.0,98,0.00,,---,0.00,VWS V14.01,2013-09-28 05:03:00,
2013-09-28 01:08:00,56.0,55.5,30.22,NNW,339,0.0,0.0,98,0.00,,---,0.00,VWS V14.01,2013-09-28 05:08:00,
2013-09-28 01:10:00,56.1,55.5,30.22,NNW,339,0.0,0.0,98,0.00,,---,0.00,VWS V14.01,2013-09-28 05:10:00,
2013-09-28 01:13:00,56.2,55.7,30.22,NNW,339,0.0,0.0,98,0.00,,---,0.00,VWS V14.01,2013-09-28 05:13:00,
2013-09-28 01:18:00,56.2,55.7,30.22,NNW,338,0.0,0.0,98,0.00,,---,0.00,VWS V14.01,2013-09-28 05:18:00,
2013-09-28 01:20:00,56.2,55.7,30.22,NNW,339,0.0,0.0,98,0.00,,---,0.00,VWS V14.01,2013-09-28 05:20:00,
2013-09-28 01:23:00,56.2,55.7,30.22,NNW,338,0.0,0.0,98,0.00,,---,0.00,VWS V14.01,2013-09-28 05:23:00,
2013-09-28 01:28:00,56.2,55.7,30.22,NNW,339,0.0,0.0,98,0.00,,---,0.00,VWS V14.01,2013-09-28 05:28:00,
2013-09-28 01:30:00,56.1,55.5,30.22,NNW,339,0.0,0.0,98,0.00,,---,0.00,VWS V14.01,2013-09-28 05:30:00,
2013-09-28 01:33:00,56.1,55.5,30.22,NNW,338,0.0,0.0,98,0.00,,---,0.00,VWS V14.01,2013-09-28 05:33:00,
2013-09-28 01:38:00,56.1,55.5,30.22,NNW,338,0.0,0.0,98,0.00,,---,0.00,VWS V14.01,2013-09-28 05:38:00,
2013-09-28 01:40:00,56.1,55.5,30.22,NNW,338,0.0,0.0,98,0.00,,---,0.00,VWS V14.01,2013-09-28 05:40:00,
2013-09-28 01:43:00,56.1,55.5,30.22,NNW,338,0.0,0.0,98,0.00,,---,0.00,VWS V14.01,2013-09-28 05:43:00,
2013-09-28 01:48:00,56.1,55.5,30.22,NNW,338,0.0,0.0,98,0.00,,---,0.00,VWS V14.01,2013-09-28 05:48:00,
2013-09-28 01:50:00,56.1,55.5,30.22,NNW,339,0.0,0.0,98,0.00,,---,0.00,VWS V14.01,2013-09-28 05:50:00,
2013-09-28 01:53:00,56.1,55.5,30.22,NNW,338,0.0,0.0,98,0.00,,---,0.00,VWS V14.01,2013-09-28 05:53:00,
2013-09-28 01:58:00,56.1,55.5,30.22,NNW,338,0.0,0.0,98,0.00,,---,0.00,VWS V14.01,2013-09-28 05:58:00,
2013-09-28 02:00:00,56.1,55.5,30.22,NNW,339,0.0,0.0,98,0.00,,---,0.00,VWS V14.01,2013-09-28 06:00:00,
2013-09-28 02:03:00,56.1,55.5,30.22,NNW,338,0.0,0.0,98,0.00,,---,0.00,VWS V14.01,2013-09-28 06:03:00,
2013-09-28 02:08:00,56.0,55.5,30.22,NNW,338,0.0,0.0,98,0.00,,---,0.00,VWS V14.01,2013-09-28 06:08:00,
2013-09-28 02:10:00,56.0,55.5,30.22,NNW,338,0.0,0.0,98,0.00,,---,0.00,VWS V14.01,2013-09-28 06:10:00,
2013-09-28 02:13:00,56.0,55.5,30.22,NNW,338,0.0,0.0,98,0.00,,---,0.00,VWS V14.01,2013-09-28 06:13:00,
2013-09-28 02:18:00,55.8,55.2,30.22,NNW,338,0.0,0.0,98,0.00,,---,0.00,VWS V14.01,2013-09-28 06:18:00,
2013-09-28 02:20:00,55.8,55.2,30.22,ENE,70,0.0,0.0,98,0.00,,---,0.00,VWS V14.01,2013-09-28 06:20:00,
2013-09-28 02:23:00,55.6,55.0,30.22,East,80,0.0,0.0,98,0.00,,---,0.00,VWS V14.01,2013-09-28 06:23:00,
2013-09-28 02:28:00,55.4,54.8,30.22,East,80,0.0,0.0,98,0.00,,---,0.00,VWS V14.01,2013-09-28 06:28:00,
2013-09-28 02:30:00,55.3,54.8,30.22,East,80,0.0,0.0,98,0.00,,---,0.00,VWS V14.01,2013-09-28 06:30:00,
2013-09-28 02:33:00,55.2,54.7,30.22,East,80,0.0,0.0,98,0.00,,---,0.00,VWS V14.01,2013-09-28 06:33:00,
2013-09-28 02:38:00,54.9,54.3,30.22,East,81,0.0,0.0,98,0.00,,---,0.00,VWS V14.01,2013-09-28 06:38:00,
2013-09-28 02:40:00,54.9,54.3,30.22,East,80,0.0,0.0,98,0.00,,---,0.00,VWS V14.01,2013-09-28 06:40:00,
2013-09-28 02:43:00,54.7,54.2,30.22,East,80,0.0,0.0,98,0.00,,---,0.00,VWS V14.01,2013-09-28 06:43:00,
2013-09-28 02:48:00,54.4,53.8,30.22,East,80,0.0,0.0,98,0.00,,---,0.00,VWS V14.01,2013-09-28 06:48:00,
2013-09-28 02:50:00,54.3,53.8,30.22,East,81,0.0,0.0,98,0.00,,---,0.00,VWS V14.01,2013-09-28 06:50:00,
2013-09-28 02:53:00,54.1,53.5,30.21,East,81,0.0,0.0,98,0.00,,---,0.00,VWS V14.01,2013-09-28 06:53:00,
2013-09-28 02:58:00,53.9,53.3,30.21,East,81,0.0,0.0,98,0.00,,---,0.00,VWS V14.01,2013-09-28 06:58:00,
2013-09-28 03:00:00,53.9,53.3,30.21,East,80,0.0,0.0,98,0.00,,---,0.00,VWS V14.01,2013-09-28 07:00:00,
2013-09-28 03:03:00,53.7,53.2,30.21,East,80,0.0,0.0,98,0.00,,---,0.00,VWS V14.01,2013-09-28 07:03:00,
2013-09-28 03:08:00,53.6,53.0,30.21,East,80,0.0,0.0,98,0.00,,---,0.00,VWS V14.01,2013-09-28 07:08:00,
2013-09-28 03:10:00,53.6,53.0,30.21,East,81,0.0,0.0,98,0.00,,---,0.00,VWS V14.01,2013-09-28 07:10:00,
2013-09-28 03:13:00,53.7,53.2,30.22,East,80,0.0,0.0,98,0.00,,---,0.00,VWS V14.01,2013-09-28 07:13:00,
2013-09-28 03:18:00,53.9,53.3,30.22,East,81,0.0,0.0,98,0.00,,---,0.00,VWS V14.01,2013-09-28 07:18:00,
2013-09-28 03:20:00,53.9,53.3,30.22,East,80,0.0,0.0,98,0.00,,---,0.00,VWS V14.01,2013-09-28 07:20:00,
2013-09-28 03:23:00,53.9,53.3,30.22,East,80,0.0,0.0,98,0.00,,---,0.00,VWS V14.01,2013-09-28 07:23:00,
2013-09-28 03:28:00,53.9,53.3,30.21,East,80,0.0,0.0,98,0.00,,---,0.00,VWS V14.01,2013-09-28 07:28:00,
2013-09-28 03:30:00,53.9,53.3,30.21,East,81,0.0,0.0,98,0.00,,---,0.00,VWS V14.01,2013-09-28 07:30:00,
2013-09-28 03:33:00,53.8,53.2,30.21,East,81,0.0,0.0,98,0.00,,---,0.00,VWS V14.01,2013-09-28 07:33:00,
2013-09-28 03:38:00,53.7,53.2,30.21,East,81,0.0,0.0,98,0.00,,---,0.00,VWS V14.01,2013-09-28 07:38:00,
2013-09-28 03:40:00,53.7,53.2,30.21,East,81,0.0,0.0,98,0.00,,---,0.00,VWS V14.01,2013-09-28 07:40:00,
2013-09-28 03:43:00,53.6,53.0,30.21,East,80,0.0,0.0,98,0.00,,---,0.00,VWS V14.01,2013-09-28 07:43:00,
2013-09-28 03:48:00,53.5,53.0,30.22,East,80,0.0,0.0,98,0.00,,---,0.00,VWS V14.01,2013-09-28 07:48:00,
2013-09-28 03:50:00,53.5,53.0,30.22,East,81,0.0,0.0,98,0.00,,---,0.00,VWS V14.01,2013-09-28 07:50:00,
2013-09-28 03:53:00,53.5,53.0,30.22,East,80,0.0,0.0,98,0.00,,---,0.00,VWS V14.01,2013-09-28 07:53:00,
2013-09-28 03:58:00,53.6,53.0,30.22,East,80,0.0,0.0,98,0.00,,---,0.00,VWS V14.01,2013-09-28 07:58:00,
2013-09-28 04:00:00,53.6,53.0,30.22,East,80,0.0,0.0,98,0.00,,---,0.00,VWS V14.01,2013-09-28 08:00:00,
2013-09-28 04:03:00,53.7,53.2,30.22,East,80,0.0,0.0,98,0.00,,---,0.00,VWS V14.01,2013-09-28 08:03:00,
2013-09-28 04:08:00,53.7,53.2,30.21,East,80,0.0,0.0,98,0.00,,---,0.00,VWS V14.01,2013-09-28 08:08:00,
2013-09-28 04:10:00,53.7,53.2,30.21,East,80,0.0,0.0,98,0.00,,---,0.00,VWS V14.01,2013-09-28 08:10:00,
2013-09-28 04:13:00,53.7,53.2,30.21,ENE,77,0.0,0.0,98,0.00,,---,0.00,VWS V14.01,2013-09-28 08:13:00,
2013-09-28 04:18:00,53.6,53.0,30.22,ENE,76,0.0,0.0,98,0.00,,---,0.00,VWS V14.01,2013-09-28 08:18:00,
2013-09-28 04:20:00,53.6,53.0,30.22,ENE,76,0.0,0.0,98,0.00,,---,0.00,VWS V14.01,2013-09-28 08:20:00,
2013-09-28 04:23:00,53.5,53.0,30.22,ENE,76,0.0,0.0,98,0.00,,---,0.00,VWS V14.01,2013-09-28 08:23:00,
2013-09-28 04:28:00,53.4,52.8,30.21,ENE,77,0.0,0.0,98,0.00,,---,0.00,VWS V14.01,2013-09-28 08:28:00,
2013-09-28 04:30:00,53.4,52.8,30.21,ENE,77,0.0,0.0,98,0.00,,---,0.00,VWS V14.01,2013-09-28 08:30:00,
2013-09-28 04:33:00,53.3,52.8,30.22,ENE,76,0.0,0.0,98,0.00,,---,0.00,VWS V14.01,2013-09-28 08:33:00,
2013-09-28 04:38:00,53.4,52.8,30.22,ENE,77,0.0,0.0,98,0.00,,---,0.00,VWS V14.01,2013-09-28 08:38:00,
2013-09-28 04:40:00,53.4,52.8,30.22,ENE,77,0.0,0.0,98,0.00,,---,0.00,VWS V14.01,2013-09-28 08:40:00,
2013-09-28 04:43:00,53.3,52.8,30.22,ENE,77,0.0,0.0,98,0.00,,---,0.00,VWS V14.01,2013-09-28 08:43:00,
2013-09-28 04:48:00,53.1,52.5,30.22,ENE,76,0.0,0.0,98,0.00,,---,0.00,VWS V14.01,2013-09-28 08:48:00,
2013-09-28 04:50:00,53.1,52.5,30.22,ENE,77,0.0,0.0,98,0.00,,---,0.00,VWS V14.01,2013-09-28 08:50:00,
2013-09-28 04:53:00,52.8,52.2,30.22,ENE,77,0.0,0.0,98,0.00,,---,0.00,VWS V14.01,2013-09-28 08:53:00,
2013-09-28 04:58:00,52.6,52.0,30.22,ENE,76,0.0,0.0,98,0.00,,---,0.00,VWS V14.01,2013-09-28 08:58:00,
2013-09-28 05:00:00,52.6,52.0,30.22,ENE,76,0.0,0.0,98,0.00,,---,0.00,VWS V14.01,2013-09-28 09:00:00,
2013-09-28 05:03:00,52.5,52.0,30.22,ENE,76,0.0,0.0,98,0.00,,---,0.00,VWS V14.01,2013-09-28 09:03:00,
2013-09-28 05:08:00,52.3,51.8,30.22,ENE,77,0.0,0.0,98,0.00,,---,0.00,VWS V14.01,2013-09-28 09:08:00,
2013-09-28 05:10:00,52.3,51.8,30.22,ENE,77,0.0,0.0,98,0.00,,---,0.00,VWS V14.01,2013-09-28 09:10:00,
2013-09-28 05:13:00,52.2,51.7,30.22,ENE,76,0.0,0.0,98,0.00,,---,0.00,VWS V14.01,2013-09-28 09:13:00,
2013-09-28 05:18:00,52.0,51.5,30.23,ENE,77,0.0,0.0,98,0.00,,---,0.00,VWS V14.01,2013-09-28 09:18:00,
2013-09-28 05:20:00,52.0,51.5,30.23,ENE,77,0.0,0.0,98,0.00,,---,0.00,VWS V14.01,2013-09-28 09:20:00,
2013-09-28 05:23:00,51.9,51.4,30.23,ENE,76,0.0,0.0,98,0.00,,---,0.00,VWS V14.01,2013-09-28 09:23:00,
2013-09-28 05:29:00,51.9,51.4,30.23,ENE,76,0.0,0.0,98,0.00,,---,0.00,VWS V14.01,2013-09-28 09:29:00,
2013-09-28 05:30:00,51.9,51.4,30.23,ENE,76,0.0,0.0,98,0.00,,---,0.00,VWS V14.01,2013-09-28 09:30:00,
2013-09-28 05:34:00,52.1,51.8,30.23,ENE,76,0.0,0.0,99,0.00,,---,0.00,VWS V14.01,2013-09-28 09:34:00,
2013-09-28 05:39:00,52.1,51.8,30.23,ENE,76,0.0,0.0,99,0.00,,---,0.00,VWS V14.01,2013-09-28 09:39:00,
2013-09-28 05:40:00,52.1,51.8,30.23,ENE,76,0.0,0.0,99,0.00,,---,0.00,VWS V14.01,2013-09-28 09:40:00,
2013-09-28 05:44:00,52.2,51.9,30.23,ENE,76,0.0,0.0,99,0.00,,---,0.00,VWS V14.01,2013-09-28 09:44:00,
2013-09-28 05:49:00,52.2,51.9,30.23,ENE,77,0.0,0.0,99,0.00,,---,0.00,VWS V14.01,2013-09-28 09:49:00,
2013-09-28 05:50:00,52.2,51.9,30.23,ENE,76,0.0,0.0,99,0.00,,---,0.00,VWS V14.01,2013-09-28 09:50:00,
2013-09-28 05:54:00,52.2,51.9,30.23,ENE,77,0.0,0.0,99,0.00,,---,0.00,VWS V14.01,2013-09-28 09:54:00,
2013-09-28 05:59:00,52.3,52.0,30.23,ENE,77,0.0,0.0,99,0.00,,---,0.00,VWS V14.01,2013-09-28 09:59:00,
2013-09-28 06:00:00,52.3,52.0,30.23,ENE,77,0.0,0.0,99,0.00,,---,0.00,VWS V14.01,2013-09-28 10:00:00,
2013-09-28 06:04:00,52.2,51.9,30.24,ENE,77,0.0,0.0,99,0.00,,---,0.00,VWS V14.01,2013-09-28 10:04:00,
2013-09-28 06:09:00,52.2,51.9,30.24,ENE,77,0.0,0.0,99,0.00,,---,0.00,VWS V14.01,2013-09-28 10:09:00,
2013-09-28 06:10:00,52.2,51.9,30.24,ENE,77,0.0,0.0,99,0.00,,---,0.00,VWS V14.01,2013-09-28 10:10:00,
2013-09-28 06:14:00,52.3,52.0,30.24,ENE,77,0.0,0.0,99,0.00,,---,0.00,VWS V14.01,2013-09-28 10:14:00,
2013-09-28 06:19:00,52.4,52.1,30.24,ENE,77,0.0,0.0,99,0.00,,---,0.00,VWS V14.01,2013-09-28 10:19:00,
2013-09-28 06:20:00,52.4,52.1,30.24,ENE,76,0.0,0.0,99,0.00,,---,0.00,VWS V14.01,2013-09-28 10:20:00,
2013-09-28 06:24:00,52.5,52.2,30.24,ENE,77,0.0,0.0,99,0.00,,---,0.00,VWS V14.01,2013-09-28 10:24:00,
2013-09-28 06:29:00,52.6,52.3,30.25,ENE,76,0.0,0.0,99,0.00,,---,0.00,VWS V14.01,2013-09-28 10:29:00,
2013-09-28 06:30:00,52.6,52.3,30.25,ENE,77,0.0,0.0,99,0.00,,---,0.00,VWS V14.01,2013-09-28 10:30:00,
2013-09-28 06:34:00,52.7,52.4,30.25,ENE,77,0.0,0.0,99,0.00,,---,0.00,VWS V14.01,2013-09-28 10:34:00,
2013-09-28 06:39:00,52.8,52.5,30.25,ENE,76,0.0,0.0,99,0.00,,---,0.00,VWS V14.01,2013-09-28 10:39:00,
2013-09-28 06:40:00,52.8,52.5,30.25,ENE,76,0.0,0.0,99,0.00,,---,0.00,VWS V14.01,2013-09-28 10:40:00,
2013-09-28 06:44:00,52.9,52.6,30.25,ENE,76,0.0,0.0,99,0.00,,---,0.00,VWS V14.01,2013-09-28 10:44:00,
2013-09-28 06:49:00,53.0,52.7,30.25,ENE,77,0.0,0.0,99,0.00,,---,0.00,VWS V14.01,2013-09-28 10:49:00,
2013-09-28 06:50:00,53.0,52.7,30.25,ENE,76,0.0,0.0,99,0.00,,---,0.00,VWS V14.01,2013-09-28 10:50:00,
2013-09-28 06:54:00,53.2,52.9,30.25,ENE,77,0.0,0.0,99,0.00,,---,0.00,VWS V14.01,2013-09-28 10:54:00,
2013-09-28 06:59:00,53.3,53.0,30.25,ENE,77,0.0,0.0,99,0.00,,---,0.00,VWS V14.01,2013-09-28 10:59:00,
2013-09-28 07:00:00,53.3,53.0,30.25,ENE,76,0.0,0.0,99,0.00,,---,0.00,VWS V14.01,2013-09-28 11:00:00,
2013-09-28 07:04:00,53.4,53.1,30.25,ENE,77,0.0,0.0,99,0.00,,---,0.00,VWS V14.01,2013-09-28 11:04:00,
2013-09-28 07:09:00,53.6,53.3,30.25,ENE,76,0.0,0.0,99,0.00,,---,0.00,VWS V14.01,2013-09-28 11:09:00,
2013-09-28 07:10:00,53.6,53.3,30.25,ENE,76,0.0,0.0,99,0.00,,---,0.00,VWS V14.01,2013-09-28 11:10:00,
2013-09-28 07:14:00,53.6,53.3,30.26,ENE,76,0.0,0.0,99,0.00,,---,0.00,VWS V14.01,2013-09-28 11:14:00,
2013-09-28 07:19:00,53.7,53.4,30.26,ENE,76,0.0,0.0,99,0.00,,---,0.00,VWS V14.01,2013-09-28 11:19:00,
2013-09-28 07:20:00,53.7,53.4,30.26,ENE,76,0.0,0.0,99,0.00,,---,0.00,VWS V14.01,2013-09-28 11:20:00,
2013-09-28 07:24:00,53.8,53.5,30.26,ENE,77,0.0,0.0,99,0.00,,---,0.00,VWS V14.01,2013-09-28 11:24:00,
2013-09-28 07:29:00,53.9,53.6,30.26,ENE,76,0.0,0.0,99,0.00,,---,0.00,VWS V14.01,2013-09-28 11:29:00,
2013-09-28 07:30:00,53.9,53.6,30.26,ENE,76,0.0,0.0,99,0.00,,---,0.00,VWS V14.01,2013-09-28 11:30:00,
2013-09-28 07:34:00,54.1,53.8,30.26,ENE,77,0.0,0.0,99,0.00,,---,0.00,VWS V14.01,2013-09-28 11:34:00,
2013-09-28 07:39:00,54.2,53.9,30.27,ENE,76,0.0,0.0,99,0.00,,---,0.00,VWS V14.01,2013-09-28 11:39:00,
2013-09-28 07:40:00,54.2,53.9,30.27,ENE,76,0.0,0.0,99,0.00,,---,0.00,VWS V14.01,2013-09-28 11:40:00,
2013-09-28 07:44:00,54.4,54.1,30.27,ENE,77,0.0,0.0,99,0.00,,---,0.00,VWS V14.01,2013-09-28 11:44:00,
2013-09-28 07:49:00,54.5,54.2,30.27,ENE,76,0.0,0.0,99,0.00,,---,0.00,VWS V14.01,2013-09-28 11:49:00,
2013-09-28 07:50:00,54.5,54.2,30.27,ENE,76,0.0,0.0,99,0.00,,---,0.00,VWS V14.01,2013-09-28 11:50:00,
2013-09-28 07:54:00,54.7,54.4,30.27,ENE,76,0.0,0.0,99,0.00,,---,0.00,VWS V14.01,2013-09-28 11:54:00,
2013-09-28 07:59:00,54.8,54.5,30.27,ENE,76,0.0,0.0,99,0.00,,---,0.00,VWS V14.01,2013-09-28 11:59:00,
2013-09-28 08:00:00,54.8,54.5,30.27,ENE,76,0.0,0.0,99,0.00,,---,0.00,VWS V14.01,2013-09-28 12:00:00,
2013-09-28 08:04:00,54.9,54.6,30.27,ENE,77,0.0,0.0,99,0.00,,---,0.00,VWS V14.01,2013-09-28 12:04:00,
2013-09-28 08:09:00,55.1,54.8,30.27,ENE,77,0.0,0.0,99,0.00,,---,0.00,VWS V14.01,2013-09-28 12:09:00,
2013-09-28 08:10:00,55.1,54.8,30.27,ENE,76,0.0,0.0,99,0.00,,---,0.00,VWS V14.01,2013-09-28 12:10:00,
2013-09-28 08:14:00,55.2,54.9,30.27,ENE,77,0.0,0.0,99,0.00,,---,0.00,VWS V14.01,2013-09-28 12:14:00,
2013-09-28 08:19:00,55.4,55.1,30.27,ENE,77,0.0,0.0,99,0.00,,---,0.00,VWS V14.01,2013-09-28 12:19:00,
2013-09-28 08:20:00,55.4,55.1,30.27,ENE,76,0.0,0.0,99,0.00,,---,0.00,VWS V14.01,2013-09-28 12:20:00,
2013-09-28 08:24:00,55.5,55.2,30.27,ENE,78,0.0,0.0,99,0.00,,---,0.00,VWS V14.01,2013-09-28 12:24:00,
2013-09-28 08:29:00,55.6,55.3,30.27,ENE,78,0.0,0.0,99,0.00,,---,0.00,VWS V14.01,2013-09-28 12:29:00,
2013-09-28 08:30:00,55.6,55.3,30.27,ENE,77,0.0,0.0,99,0.00,,---,0.00,VWS V14.01,2013-09-28 12:30:00,
2013-09-28 08:34:00,55.8,55.5,30.27,SSE,153,0.0,0.0,99,0.00,,---,0.00,VWS V14.01,2013-09-28 12:34:00,
2013-09-28 08:39:00,55.9,55.6,30.27,SSE,160,0.0,0.0,99,0.00,,---,0.00,VWS V14.01,2013-09-28 12:39:00,
2013-09-28 08:40:00,55.9,55.6,30.27,SSE,160,0.0,0.0,99,0.00,,---,0.00,VWS V14.01,2013-09-28 12:40:00,
2013-09-28 08:44:00,56.2,55.9,30.27,SSE,159,0.0,0.0,99,0.00,,---,0.00,VWS V14.01,2013-09-28 12:44:00,
2013-09-28 08:49:00,56.5,56.2,30.27,SSW,203,0.0,0.0,99,0.00,,---,0.00,VWS V14.01,2013-09-28 12:49:00,
2013-09-28 08:50:00,56.5,56.2,30.27,SSW,204,0.0,1.0,99,0.00,,---,0.00,VWS V14.01,2013-09-28 12:50:00,
2013-09-28 08:54:00,56.7,56.4,30.28,SSW,204,0.0,1.0,99,0.00,,---,0.00,VWS V14.01,2013-09-28 12:54:00,
2013-09-28 08:59:00,56.9,56.6,30.28,SSW,204,0.0,0.0,99,0.00,,---,0.00,VWS V14.01,2013-09-28 12:59:00,
2013-09-28 09:00:00,56.9,56.6,30.28,SSW,204,0.0,1.0,99,0.00,,---,0.00,VWS V14.01,2013-09-28 13:00:00,
2013-09-28 09:04:00,57.2,56.9,30.28,SSW,204,0.0,0.0,99,0.00,,---,0.00,VWS V14.01,2013-09-28 13:04:00,
2013-09-28 09:09:00,57.5,57.2,30.28,SSW,204,0.0,0.0,99,0.00,,---,0.00,VWS V14.01,2013-09-28 13:09:00,
2013-09-28 09:10:00,57.4,57.1,30.28,SSW,204,0.0,0.0,99,0.00,,---,0.00,VWS V14.01,2013-09-28 13:10:00,
2013-09-28 09:14:00,57.9,57.6,30.28,SSW,204,0.0,0.0,99,0.00,,---,0.00,VWS V14.01,2013-09-28 13:14:00,
2013-09-28 09:19:00,58.1,57.8,30.28,NW,309,0.0,0.0,99,0.00,,---,0.00,VWS V14.01,2013-09-28 13:19:00,
2013-09-28 09:20:00,58.1,57.8,30.28,NW,309,0.0,1.0,99,0.00,,---,0.00,VWS V14.01,2013-09-28 13:20:00,
2013-09-28 09:24:00,58.1,57.5,30.28,NNE,31,0.0,2.0,98,0.00,,---,0.00,VWS V14.01,2013-09-28 13:24:00,
2013-09-28 09:29:00,58.3,58.0,30.28,NW,324,0.0,0.0,99,0.00,,---,0.00,VWS V14.01,2013-09-28 13:29:00,
2013-09-28 09:30:00,58.3,58.0,30.28,NW,324,0.0,2.0,99,0.00,,---,0.00,VWS V14.01,2013-09-28 13:30:00,
2013-09-28 09:34:00,58.6,58.3,30.28,North,8,0.0,2.0,99,0.00,,---,0.00,VWS V14.01,2013-09-28 13:34:00,
2013-09-28 09:39:00,58.9,58.3,30.29,East,86,0.0,0.0,98,0.00,,---,0.00,VWS V14.01,2013-09-28 13:39:00,
2013-09-28 09:40:00,58.9,58.3,30.29,East,86,0.0,2.0,98,0.00,,---,0.00,VWS V14.01,2013-09-28 13:40:00,
2013-09-28 09:44:00,59.2,58.6,30.29,NE,47,2.0,4.0,98,0.00,,---,0.00,VWS V14.01,2013-09-28 13:44:00,
2013-09-28 09:49:00,59.3,58.5,30.29,ENE,57,1.0,3.0,97,0.00,,---,0.00,VWS V14.01,2013-09-28 13:49:00,
2013-09-28 09:50:00,59.3,58.5,30.29,NNE,17,3.0,4.0,97,0.00,,---,0.00,VWS V14.01,2013-09-28 13:50:00,
2013-09-28 09:54:00,59.4,58.3,30.29,NE,56,1.0,3.0,96,0.00,,---,0.00,VWS V14.01,2013-09-28 13:54:00,
2013-09-28 09:59:00,59.6,58.2,30.28,NNE,32,0.0,1.0,95,0.00,,---,0.00,VWS V14.01,2013-09-28 13:59:00,
2013-09-28 10:00:00,59.6,58.2,30.28,NE,51,1.0,3.0,95,0.00,,---,0.00,VWS V14.01,2013-09-28 14:00:00,
2013-09-28 10:04:00,59.9,58.5,30.28,ENE,76,2.0,3.0,95,0.00,,---,0.00,VWS V14.01,2013-09-28 14:04:00,
2013-09-28 10:09:00,60.1,58.1,30.28,North,359,1.0,2.0,93,0.00,,---,0.00,VWS V14.01,2013-09-28 14:09:00,
2013-09-28 10:10:00,60.1,58.1,30.28,ENE,72,1.0,4.0,93,0.00,,---,0.00,VWS V14.01,2013-09-28 14:10:00,
2013-09-28 10:14:00,60.4,58.1,30.29,ENE,62,3.0,3.0,92,0.00,,---,0.00,VWS V14.01,2013-09-28 14:14:00,
2013-09-28 10:19:00,60.7,57.8,30.29,NNW,338,2.0,3.0,90,0.00,,---,0.00,VWS V14.01,2013-09-28 14:19:00,
2013-09-28 10:20:00,60.6,58.0,30.29,North,349,1.0,4.0,91,0.00,,---,0.00,VWS V14.01,2013-09-28 14:20:00,
2013-09-28 10:24:00,60.9,58.0,30.29,WNW,282,0.0,3.0,90,0.00,,---,0.00,VWS V14.01,2013-09-28 14:24:00,
2013-09-28 10:29:00,61.3,58.0,30.29,NW,314,0.0,2.0,89,0.00,,---,0.00,VWS V14.01,2013-09-28 14:29:00,
2013-09-28 10:30:00,61.2,57.9,30.29,NNW,339,1.0,3.0,89,0.00,,---,0.00,VWS V14.01,2013-09-28 14:30:00,
2013-09-28 10:34:00,61.6,58.0,30.29,WNW,290,1.0,3.0,88,0.00,,---,0.00,VWS V14.01,2013-09-28 14:34:00,
2013-09-28 10:39:00,62.2,58.3,30.29,NE,37,0.0,1.0,87,0.00,,---,0.00,VWS V14.01,2013-09-28 14:39:00,
2013-09-28 10:40:00,62.1,58.5,30.29,NE,39,1.0,3.0,88,0.00,,---,0.00,VWS V14.01,2013-09-28 14:40:00,
2013-09-28 10:44:00,63.0,59.1,30.29,NW,321,0.0,3.0,87,0.00,,---,0.00,VWS V14.01,2013-09-28 14:44:00,
2013-09-28 10:49:00,63.5,58.6,30.29,ENE,76,0.0,1.0,84,0.00,,---,0.00,VWS V14.01,2013-09-28 14:49:00,
2013-09-28 10:50:00,63.4,58.2,30.29,East,100,0.0,4.0,83,0.00,,---,0.00,VWS V14.01,2013-09-28 14:50:00,
2013-09-28 10:55:00,63.8,57.5,30.29,ENE,65,1.0,6.0,80,0.00,,---,0.00,VWS V14.01,2013-09-28 14:55:00,
2013-09-28 11:00:00,64.0,57.7,30.29,NW,321,2.0,4.0,80,0.00,,---,0.00,VWS V14.01,2013-09-28 15:00:00,
2013-09-28 11:05:00,64.1,57.1,30.29,NNE,26,1.0,6.0,78,0.00,,---,0.00,VWS V14.01,2013-09-28 15:05:00,
2013-09-28 11:10:00,64.2,57.2,30.29,NE,39,2.0,6.0,78,0.00,,---,0.00,VWS V14.01,2013-09-28 15:10:00,
2013-09-28 11:15:00,63.8,57.2,30.29,East,96,3.0,10.0,79,0.00,,---,0.00,VWS V14.01,2013-09-28 15:15:00,
2013-09-28 11:20:00,63.7,57.4,30.29,ENE,67,1.0,4.0,80,0.00,,---,0.00,VWS V14.01,2013-09-28 15:20:00,
2013-09-28 11:25:00,63.8,57.2,30.29,East,95,1.0,6.0,79,0.00,,---,0.00,VWS V14.01,2013-09-28 15:25:00,
2013-09-28 11:30:00,63.7,56.7,30.29,ENE,70,0.0,2.0,78,0.00,,---,0.00,VWS V14.01,2013-09-28 15:30:00,
2013-09-28 11:35:00,63.7,56.7,30.29,ENE,65,1.0,4.0,78,0.00,,---,0.00,VWS V14.01,2013-09-28 15:35:00,
2013-09-28 11:40:00,63.6,56.3,30.29,ENE,70,2.0,2.0,77,0.00,,---,0.00,VWS V14.01,2013-09-28 15:40:00,
2013-09-28 11:45:00,63.7,56.7,30.29,ENE,62,3.0,6.0,78,0.00,,---,0.00,VWS V14.01,2013-09-28 15:45:00,
2013-09-28 11:50:00,63.7,56.4,30.29,ENE,60,3.0,3.0,77,0.00,,---,0.00,VWS V14.01,2013-09-28 15:50:00,
2013-09-28 11:55:00,63.8,56.5,30.29,East,91,2.0,6.0,77,0.00,,---,0.00,VWS V14.01,2013-09-28 15:55:00,
2013-09-28 12:00:00,63.7,56.7,30.29,East,96,2.0,2.0,78,0.00,,---,0.00,VWS V14.01,2013-09-28 16:00:00,
2013-09-28 12:05:00,63.5,56.2,30.29,NE,54,2.0,5.0,77,0.00,,---,0.00,VWS V14.01,2013-09-28 16:05:00,
2013-09-28 12:10:00,63.2,56.2,30.29,East,101,1.0,4.0,78,0.00,,---,0.00,VWS V14.01,2013-09-28 16:10:00,
2013-09-28 12:15:00,63.1,56.1,30.29,East,84,2.0,4.0,78,0.00,,---,0.00,VWS V14.01,2013-09-28 16:15:00,
2013-09-28 12:20:00,63.2,56.2,30.29,ENE,64,1.0,1.0,78,0.00,,---,0.00,VWS V14.01,2013-09-28 16:20:00,
2013-09-28 12:25:00,63.4,56.4,30.29,East,101,1.0,3.0,78,0.00,,---,0.00,VWS V14.01,2013-09-28 16:25:00,
2013-09-28 12:30:00,63.9,56.9,30.29,NNW,340,3.0,4.0,78,0.00,,---,0.00,VWS V14.01,2013-09-28 16:30:00,
2013-09-28 12:35:00,64.0,56.3,30.29,NE,39,1.0,6.0,76,0.00,,---,0.00,VWS V14.01,2013-09-28 16:35:00,
2013-09-28 12:40:00,64.1,56.4,30.28,NE,42,4.0,5.0,76,0.00,,---,0.00,VWS V14.01,2013-09-28 16:40:00,
2013-09-28 12:45:00,64.1,55.7,30.28,NNW,343,2.0,5.0,74,0.00,,---,0.00,VWS V14.01,2013-09-28 16:45:00,
2013-09-28 12:50:00,64.3,56.2,30.28,NE,51,7.0,7.0,75,0.00,,---,0.00,VWS V14.01,2013-09-28 16:50:00,
2013-09-28 12:55:00,64.3,56.6,30.28,East,89,4.0,7.0,76,0.00,,---,0.00,VWS V14.01,2013-09-28 16:55:00,
2013-09-28 13:00:00,64.1,55.3,30.28,ENE,78,1.0,5.0,73,0.00,,---,0.00,VWS V14.01,2013-09-28 17:00:00,
2013-09-28 13:05:00,64.1,55.7,30.28,ENE,77,1.0,5.0,74,0.00,,---,0.00,VWS V14.01,2013-09-28 17:05:00,
2013-09-28 13:10:00,64.1,56.0,30.28,NNE,31,0.0,3.0,75,0.00,,---,0.00,VWS V14.01,2013-09-28 17:10:00,
2013-09-28 13:15:00,64.2,56.1,30.28,NE,56,0.0,3.0,75,0.00,,---,0.00,VWS V14.01,2013-09-28 17:15:00,
2013-09-28 13:20:00,64.1,56.0,30.28,NNE,31,3.0,3.0,75,0.00,,---,0.00,VWS V14.01,2013-09-28 17:20:00,
2013-09-28 13:25:00,64.3,56.6,30.27,ENE,74,2.0,3.0,76,0.00,,---,0.00,VWS V14.01,2013-09-28 17:25:00,
2013-09-28 13:30:00,64.3,56.6,30.27,ENE,73,2.0,3.0,76,0.00,,---,0.00,VWS V14.01,2013-09-28 17:30:00,
2013-09-28 13:35:00,64.3,56.2,30.27,NE,53,1.0,5.0,75,0.00,,---,0.00,VWS V14.01,2013-09-28 17:35:00,
2013-09-28 13:40:00,64.3,56.2,30.27,NE,39,3.0,4.0,75,0.00,,---,0.00,VWS V14.01,2013-09-28 17:40:00,
2013-09-28 13:45:00,64.3,55.8,30.26,ENE,65,1.0,5.0,74,0.00,,---,0.00,VWS V14.01,2013-09-28 17:45:00,
2013-09-28 13:50:00,64.6,56.1,30.26,NE,36,1.0,2.0,74,0.00,,---,0.00,VWS V14.01,2013-09-28 17:50:00,
2013-09-28 13:55:00,64.8,56.0,30.26,NE,36,0.0,3.0,73,0.00,,---,0.00,VWS V14.01,2013-09-28 17:55:00,
2013-09-28 14:00:00,64.9,56.0,30.26,NE,38,2.0,3.0,73,0.00,,---,0.00,VWS V14.01,2013-09-28 18:00:00,
2013-09-28 14:05:00,64.9,55.7,30.25,NNE,13,1.0,4.0,72,0.00,,---,0.00,VWS V14.01,2013-09-28 18:05:00,
2013-09-28 14:10:00,64.9,56.0,30.25,ENE,65,1.0,4.0,73,0.00,,---,0.00,VWS V14.01,2013-09-28 18:10:00,
2013-09-28 14:15:00,65.0,56.9,30.25,WSW,253,0.0,4.0,75,0.00,,---,0.00,VWS V14.01,2013-09-28 18:15:00,
2013-09-28 14:20:00,65.4,56.9,30.25,ENE,70,3.0,5.0,74,0.00,,---,0.00,VWS V14.01,2013-09-28 18:20:00,
2013-09-28 14:25:00,65.3,56.4,30.25,NNE,29,4.0,7.0,73,0.00,,---,0.00,VWS V14.01,2013-09-28 18:25:00,
2013-09-28 14:30:00,65.2,56.0,30.25,ENE,68,0.0,2.0,72,0.00,,---,0.00,VWS V14.01,2013-09-28 18:30:00,
2013-09-28 14:36:00,65.3,56.8,30.25,NNE,17,0.0,2.0,74,0.00,,---,0.00,VWS V14.01,2013-09-28 18:36:00,
2013-09-28 14:40:00,65.6,56.7,30.24,ENE,70,1.0,3.0,73,0.00,,---,0.00,VWS V14.01,2013-09-28 18:40:00,
2013-09-28 14:41:00,65.7,56.8,30.24,NW,305,0.0,3.0,73,0.00,,---,0.00,VWS V14.01,2013-09-28 18:41:00,
2013-09-28 14:46:00,65.8,56.5,30.24,NNW,335,0.0,4.0,72,0.00,,---,0.00,VWS V14.01,2013-09-28 18:46:00,
2013-09-28 14:50:00,65.9,56.6,30.24,ENE,71,1.0,4.0,72,0.00,,---,0.00,VWS V14.01,2013-09-28 18:50:00,
2013-09-28 14:51:00,66.0,56.3,30.24,East,95,1.0,3.0,71,0.00,,---,0.00,VWS V14.01,2013-09-28 18:51:00,
2013-09-28 14:56:00,65.8,56.5,30.24,NE,46,2.0,5.0,72,0.00,,---,0.00,VWS V14.01,2013-09-28 18:56:00,
2013-09-28 15:00:00,65.9,57.4,30.24,NNE,15,3.0,5.0,74,0.00,,---,0.00,VWS V14.01,2013-09-28 19:00:00,
2013-09-28 15:01:00,65.9,56.2,30.24,NNW,339,0.0,5.0,71,0.00,,---,0.00,VWS V14.01,2013-09-28 19:01:00,
2013-09-28 15:06:00,65.6,56.3,30.24,ENE,68,3.0,6.0,72,0.00,,---,0.00,VWS V14.01,2013-09-28 19:06:00,
2013-09-28 15:10:00,65.5,55.5,30.24,ENE,64,2.0,6.0,70,0.00,,---,0.00,VWS V14.01,2013-09-28 19:10:00,
2013-09-28 15:11:00,65.4,55.8,30.24,North,11,0.0,2.0,71,0.00,,---,0.00,VWS V14.01,2013-09-28 19:11:00,
2013-09-28 15:16:00,65.4,55.8,30.24,ENE,77,1.0,3.0,71,0.00,,---,0.00,VWS V14.01,2013-09-28 19:16:00,
2013-09-28 15:20:00,65.3,56.0,30.24,ENE,62,1.0,3.0,72,0.00,,---,0.00,VWS V14.01,2013-09-28 19:20:00,
2013-09-28 15:21:00,65.3,55.7,30.24,ENE,64,0.0,2.0,71,0.00,,---,0.00,VWS V14.01,2013-09-28 19:21:00,
2013-09-28 15:26:00,65.4,55.8,30.24,ESE,107,0.0,2.0,71,0.00,,---,0.00,VWS V14.01,2013-09-28 19:26:00,
2013-09-28 15:30:00,65.5,56.2,30.24,ENE,72,0.0,2.0,72,0.00,,---,0.00,VWS V14.01,2013-09-28 19:30:00,
2013-09-28 15:31:00,65.5,56.2,30.24,North,356,0.0,1.0,72,0.00,,---,0.00,VWS V14.01,2013-09-28 19:31:00,
2013-09-28 15:36:00,65.4,56.2,30.24,NNW,341,0.0,2.0,72,0.00,,---,0.00,VWS V14.01,2013-09-28 19:36:00,
2013-09-28 15:40:00,65.4,56.2,30.24,NNE,26,0.0,2.0,72,0.00,,---,0.00,VWS V14.01,2013-09-28 19:40:00,
2013-09-28 15:41:00,65.4,56.5,30.24,NNE,22,0.0,1.0,73,0.00,,---,0.00,VWS V14.01,2013-09-28 19:41:00,
2013-09-28 15:46:00,65.6,57.1,30.23,NE,41,0.0,2.0,74,0.00,,---,0.00,VWS V14.01,2013-09-28 19:46:00,
2013-09-28 15:50:00,65.7,57.2,30.23,NE,39,2.0,2.0,74,0.00,,---,0.00,VWS V14.01,2013-09-28 19:50:00,
2013-09-28 15:51:00,65.6,56.3,30.23,NE,43,0.0,2.0,72,0.00,,---,0.00,VWS V14.01,2013-09-28 19:51:00,
2013-09-28 15:56:00,65.7,57.2,30.23,WNW,295,0.0,2.0,74,0.00,,---,0.00,VWS V14.01,2013-09-28 19:56:00,
2013-09-28 16:00:00,65.8,56.9,30.23,NNW,328,1.0,2.0,73,0.00,,---,0.00,VWS V14.01,2013-09-28 20:00:00,
2013-09-28 16:01:00,65.7,57.2,30.23,NNE,26,0.0,2.0,74,0.00,,---,0.00,VWS V14.01,2013-09-28 20:01:00,
2013-09-28 16:06:00,65.7,56.8,30.23,NNE,33,0.0,3.0,73,0.00,,---,0.00,VWS V14.01,2013-09-28 20:06:00,
2013-09-28 16:10:00,65.7,56.4,30.23,NNW,336,1.0,5.0,72,0.00,,---,0.00,VWS V14.01,2013-09-28 20:10:00,
2013-09-28 16:11:00,65.6,56.7,30.22,NW,312,0.0,1.0,73,0.00,,---,0.00,VWS V14.01,2013-09-28 20:11:00,
2013-09-28 16:16:00,65.7,57.2,30.23,NNW,333,2.0,3.0,74,0.00,,---,0.00,VWS V14.01,2013-09-28 20:16:00,
2013-09-28 16:20:00,65.6,56.3,30.23,NNE,17,1.0,3.0,72,0.00,,---,0.00,VWS V14.01,2013-09-28 20:20:00,
2013-09-28 16:21:00,65.6,56.3,30.23,NE,44,4.0,5.0,72,0.00,,---,0.00,VWS V14.01,2013-09-28 20:21:00,
2013-09-28 16:26:00,65.4,56.5,30.23,NNW,342,1.0,5.0,73,0.00,,---,0.00,VWS V14.01,2013-09-28 20:26:00,
2013-09-28 16:30:00,65.4,56.9,30.23,NE,51,1.0,5.0,74,0.00,,---,0.00,VWS V14.01,2013-09-28 20:30:00,
2013-09-28 16:31:00,65.4,56.9,30.22,NE,52,4.0,4.0,74,0.00,,---,0.00,VWS V14.01,2013-09-28 20:31:00,
2013-09-28 16:36:00,65.3,56.4,30.23,ENE,61,0.0,5.0,73,0.00,,---,0.00,VWS V14.01,2013-09-28 20:36:00,
2013-09-28 16:40:00,65.2,56.3,30.23,North,352,2.0,5.0,73,0.00,,---,0.00,VWS V14.01,2013-09-28 20:40:00,
2013-09-28 16:41:00,65.2,56.3,30.23,East,81,0.0,2.0,73,0.00,,---,0.00,VWS V14.01,2013-09-28 20:41:00,
2013-09-28 16:46:00,65.1,56.6,30.22,NW,323,0.0,2.0,74,0.00,,---,0.00,VWS V14.01,2013-09-28 20:46:00,
2013-09-28 16:50:00,65.1,56.6,30.22,NE,39,2.0,2.0,74,0.00,,---,0.00,VWS V14.01,2013-09-28 20:50:00,
2013-09-28 16:51:00,65.0,56.5,30.22,NE,34,0.0,2.0,74,0.00,,---,0.00,VWS V14.01,2013-09-28 20:51:00,
2013-09-28 16:56:00,64.9,56.8,30.22,ENE,66,1.0,2.0,75,0.00,,---,0.00,VWS V14.01,2013-09-28 20:56:00,
2013-09-28 17:00:00,64.8,56.7,30.22,NNW,338,0.0,2.0,75,0.00,,---,0.00,VWS V14.01,2013-09-28 21:00:00,
2013-09-28 17:01:00,64.8,56.7,30.22,NNW,337,0.0,1.0,75,0.00,,---,0.00,VWS V14.01,2013-09-28 21:01:00,
2013-09-28 17:06:00,64.7,56.6,30.22,NNE,20,0.0,1.0,75,0.00,,---,0.00,VWS V14.01,2013-09-28 21:06:00,
2013-09-28 17:10:00,64.7,57.0,30.22,NE,53,0.0,1.0,76,0.00,,---,0.00,VWS V14.01,2013-09-28 21:10:00,
2013-09-28 17:11:00,64.7,57.0,30.22,NE,53,0.0,0.0,76,0.00,,---,0.00,VWS V14.01,2013-09-28 21:11:00,
2013-09-28 17:16:00,64.6,56.9,30.22,NE,53,0.0,1.0,76,0.00,,---,0.00,VWS V14.01,2013-09-28 21:16:00,
2013-09-28 17:20:00,64.5,57.1,30.22,NE,53,0.0,1.0,77,0.00,,---,0.00,VWS V14.01,2013-09-28 21:20:00,
2013-09-28 17:21:00,64.5,57.1,30.22,NE,53,0.0,0.0,77,0.00,,---,0.00,VWS V14.01,2013-09-28 21:21:00,
2013-09-28 17:26:00,64.3,57.3,30.22,NNE,29,0.0,1.0,78,0.00,,---,0.00,VWS V14.01,2013-09-28 21:26:00,
2013-09-28 17:30:00,64.2,57.2,30.22,NNE,29,0.0,1.0,78,0.00,,---,0.00,VWS V14.01,2013-09-28 21:30:00,
2013-09-28 17:31:00,64.2,57.9,30.22,NNE,29,0.0,0.0,80,0.00,,---,0.00,VWS V14.01,2013-09-28 21:31:00,
2013-09-28 17:36:00,64.1,58.5,30.22,NNE,29,0.0,0.0,82,0.00,,---,0.00,VWS V14.01,2013-09-28 21:36:00,
2013-09-28 17:40:00,63.9,58.3,30.22,NNE,29,0.0,0.0,82,0.00,,---,0.00,VWS V14.01,2013-09-28 21:40:00,
2013-09-28 17:41:00,63.9,58.6,30.22,NNE,29,0.0,0.0,83,0.00,,---,0.00,VWS V14.01,2013-09-28 21:41:00,
2013-09-28 17:46:00,63.7,58.1,30.23,NNE,31,0.0,0.0,82,0.00,,---,0.00,VWS V14.01,2013-09-28 21:46:00,
2013-09-28 17:50:00,63.6,58.0,30.22,NNE,30,0.0,1.0,82,0.00,,---,0.00,VWS V14.01,2013-09-28 21:50:00,
2013-09-28 17:51:00,63.6,58.3,30.22,NNE,30,0.0,0.0,83,0.00,,---,0.00,VWS V14.01,2013-09-28 21:51:00,
2013-09-28 17:56:00,63.5,58.2,30.22,NNE,32,0.0,1.0,83,0.00,,---,0.00,VWS V14.01,2013-09-28 21:56:00,
2013-09-28 18:00:00,63.5,58.6,30.22,NNE,31,0.0,1.0,84,0.00,,---,0.00,VWS V14.01,2013-09-28 22:00:00,
2013-09-28 18:01:00,63.4,58.5,30.22,NNE,33,0.0,0.0,84,0.00,,---,0.00,VWS V14.01,2013-09-28 22:01:00,
2013-09-28 18:07:00,63.3,58.7,30.23,NNE,32,0.0,0.0,85,0.00,,---,0.00,VWS V14.01,2013-09-28 22:07:00,
2013-09-28 18:10:00,63.3,58.7,30.23,NNE,31,0.0,0.0,85,0.00,,---,0.00,VWS V14.01,2013-09-28 22:10:00,
2013-09-28 18:12:00,63.3,58.4,30.23,NNE,31,0.0,0.0,84,0.00,,---,0.00,VWS V14.01,2013-09-28 22:12:00,
2013-09-28 18:17:00,63.2,58.3,30.23,NE,56,0.0,0.0,84,0.00,,---,0.00,VWS V14.01,2013-09-28 22:17:00,
2013-09-28 18:20:00,63.0,58.1,30.23,NE,56,0.0,0.0,84,0.00,,---,0.00,VWS V14.01,2013-09-28 22:20:00,
2013-09-28 18:22:00,63.0,58.4,30.23,NE,56,0.0,0.0,85,0.00,,---,0.00,VWS V14.01,2013-09-28 22:22:00,
2013-09-28 18:27:00,62.8,58.2,30.23,NE,56,0.0,0.0,85,0.00,,---,0.00,VWS V14.01,2013-09-28 22:27:00,
2013-09-28 18:30:00,62.8,58.2,30.23,ENE,57,0.0,0.0,85,0.00,,---,0.00,VWS V14.01,2013-09-28 22:30:00,
2013-09-28 18:32:00,62.6,58.4,30.22,NE,56,0.0,0.0,86,0.00,,---,0.00,VWS V14.01,2013-09-28 22:32:00,
2013-09-28 18:37:00,62.4,58.2,30.23,ENE,57,0.0,0.0,86,0.00,,---,0.00,VWS V14.01,2013-09-28 22:37:00,
2013-09-28 18:40:00,62.3,58.4,30.23,ENE,57,0.0,0.0,87,0.00,,---,0.00,VWS V14.01,2013-09-28 22:40:00,
2013-09-28 18:42:00,62.2,58.0,30.22,ENE,57,0.0,0.0,86,0.00,,---,0.00,VWS V14.01,2013-09-28 22:42:00,
2013-09-28 18:47:00,62.1,58.2,30.22,ENE,57,0.0,0.0,87,0.00,,---,0.00,VWS V14.01,2013-09-28 22:47:00,
2013-09-28 18:50:00,62.0,58.1,30.22,NE,56,0.0,0.0,87,0.00,,---,0.00,VWS V14.01,2013-09-28 22:50:00,
2013-09-28 18:52:00,61.9,57.7,30.22,NE,56,0.0,0.0,86,0.00,,---,0.00,VWS V14.01,2013-09-28 22:52:00,
2013-09-28 18:57:00,61.7,57.8,30.22,NE,56,0.0,0.0,87,0.00,,---,0.00,VWS V14.01,2013-09-28 22:57:00,
2013-09-28 19:00:00,61.6,57.7,30.23,ENE,57,0.0,0.0,87,0.00,,---,0.00,VWS V14.01,2013-09-28 23:00:00,
2013-09-28 19:02:00,61.5,57.6,30.22,ENE,57,0.0,0.0,87,0.00,,---,0.00,VWS V14.01,2013-09-28 23:02:00,
2013-09-28 19:07:00,61.3,57.4,30.22,NE,56,0.0,0.0,87,0.00,,---,0.00,VWS V14.01,2013-09-28 23:07:00,
2013-09-28 19:10:00,61.2,57.3,30.23,NE,56,0.0,0.0,87,0.00,,---,0.00,VWS V14.01,2013-09-28 23:10:00,
2013-09-28 19:12:00,61.1,57.2,30.23,NE,56,0.0,0.0,87,0.00,,---,0.00,VWS V14.01,2013-09-28 23:12:00,
2013-09-28 19:17:00,60.9,57.3,30.23,NE,56,0.0,0.0,88,0.00,,---,0.00,VWS V14.01,2013-09-28 23:17:00,
2013-09-28 19:20:00,60.9,57.6,30.22,NE,56,0.0,1.0,89,0.00,,---,0.00,VWS V14.01,2013-09-28 23:20:00,
2013-09-28 19:22:00,60.7,57.4,30.22,ENE,58,0.0,0.0,89,0.00,,---,0.00,VWS V14.01,2013-09-28 23:22:00,
2013-09-28 19:27:00,60.4,57.5,30.22,ENE,59,0.0,0.0,90,0.00,,---,0.00,VWS V14.01,2013-09-28 23:27:00,
2013-09-28 19:30:00,60.3,57.4,30.22,ENE,60,0.0,0.0,90,0.00,,---,0.00,VWS V14.01,2013-09-28 23:30:00,
2013-09-28 19:32:00,60.3,57.4,30.22,ENE,60,0.0,0.0,90,0.00,,---,0.00,VWS V14.01,2013-09-28 23:32:00,
2013-09-28 19:37:00,60.1,57.2,30.22,ENE,60,0.0,0.0,90,0.00,,---,0.00,VWS V14.01,2013-09-28 23:37:00,
2013-09-28 19:40:00,60.1,57.2,30.22,ENE,60,0.0,0.0,90,0.00,,---,0.00,VWS V14.01,2013-09-28 23:40:00,
2013-09-28 19:42:00,60.0,57.4,30.22,ENE,60,0.0,0.0,91,0.00,,---,0.00,VWS V14.01,2013-09-28 23:42:00,
2013-09-28 19:47:00,59.8,57.2,30.22,ENE,60,0.0,0.0,91,0.00,,---,0.00,VWS V14.01,2013-09-28 23:47:00,
2013-09-28 19:50:00,59.8,57.2,30.22,ENE,60,0.0,0.0,91,0.00,,---,0.00,VWS V14.01,2013-09-28 23:50:00,
2013-09-28 19:52:00,59.7,57.1,30.22,ENE,60,0.0,0.0,91,0.00,,---,0.00,VWS V14.01,2013-09-28 23:52:00,
2013-09-28 19:57:00,59.6,57.0,30.22,ENE,60,0.0,0.0,91,0.00,,---,0.00,VWS V14.01,2013-09-28 23:57:00,
2013-09-28 20:00:00,59.6,57.0,30.22,ENE,60,0.0,0.0,91,0.00,,---,0.00,VWS V14.01,2013-09-29 00:00:00,
2013-09-28 20:02:00,59.6,57.0,30.22,ENE,60,0.0,0.0,91,0.00,,---,0.00,VWS V14.01,2013-09-29 00:02:00,
2013-09-28 20:07:00,59.5,56.9,30.22,ENE,60,0.0,0.0,91,0.00,,---,0.00,VWS V14.01,2013-09-29 00:07:00,
2013-09-28 20:10:00,59.5,57.2,30.22,ENE,60,0.0,0.0,92,0.00,,---,0.00,VWS V14.01,2013-09-29 00:10:00,
2013-09-28 20:12:00,59.5,57.2,30.22,ENE,60,0.0,0.0,92,0.00,,---,0.00,VWS V14.01,2013-09-29 00:12:00,
2013-09-28 20:17:00,59.4,57.1,30.22,ENE,60,0.0,0.0,92,0.00,,---,0.00,VWS V14.01,2013-09-29 00:17:00,
2013-09-28 20:20:00,59.4,57.4,30.22,ENE,60,0.0,0.0,93,0.00,,---,0.00,VWS V14.01,2013-09-29 00:20:00,
2013-09-28 20:22:00,59.3,57.3,30.22,ENE,60,0.0,0.0,93,0.00,,---,0.00,VWS V14.01,2013-09-29 00:22:00,
2013-09-28 20:27:00,59.3,57.3,30.22,ENE,60,0.0,0.0,93,0.00,,---,0.00,VWS V14.01,2013-09-29 00:27:00,
2013-09-28 20:30:00,59.2,57.2,30.22,ENE,59,0.0,0.0,93,0.00,,---,0.00,VWS V14.01,2013-09-29 00:30:00,
2013-09-28 20:32:00,59.2,57.2,30.22,ENE,60,0.0,0.0,93,0.00,,---,0.00,VWS V14.01,2013-09-29 00:32:00,
2013-09-28 20:37:00,59.1,57.1,30.22,ENE,60,0.0,0.0,93,0.00,,---,0.00,VWS V14.01,2013-09-29 00:37:00,
2013-09-28 20:40:00,59.0,57.0,30.22,ENE,60,0.0,0.0,93,0.00,,---,0.00,VWS V14.01,2013-09-29 00:40:00,
2013-09-28 20:42:00,59.0,57.0,30.22,ENE,60,0.0,0.0,93,0.00,,---,0.00,VWS V14.01,2013-09-29 00:42:00,
2013-09-28 20:47:00,59.0,56.7,30.22,ENE,60,0.0,0.0,92,0.00,,---,0.00,VWS V14.01,2013-09-29 00:47:00,
2013-09-28 20:50:00,59.0,57.0,30.22,ENE,60,0.0,0.0,93,0.00,,---,0.00,VWS V14.01,2013-09-29 00:50:00,
2013-09-28 20:52:00,59.0,57.0,30.22,ENE,59,0.0,0.0,93,0.00,,---,0.00,VWS V14.01,2013-09-29 00:52:00,
2013-09-28 20:57:00,58.9,56.9,30.22,ENE,60,0.0,0.0,93,0.00,,---,0.00,VWS V14.01,2013-09-29 00:57:00,
2013-09-28 21:00:00,58.9,56.9,30.22,ENE,60,0.0,0.0,93,0.00,,---,0.00,VWS V14.01,2013-09-29 01:00:00,
2013-09-28 21:02:00,58.8,56.8,30.22,ENE,60,0.0,0.0,93,0.00,,---,0.00,VWS V14.01,2013-09-29 01:02:00,
2013-09-28 21:07:00,58.8,56.8,30.22,ENE,59,0.0,0.0,93,0.00,,---,0.00,VWS V14.01,2013-09-29 01:07:00,
2013-09-28 21:10:00,58.7,56.7,30.22,ENE,60,0.0,0.0,93,0.00,,---,0.00,VWS V14.01,2013-09-29 01:10:00,
2013-09-28 21:12:00,58.6,56.6,30.22,ENE,60,0.0,0.0,93,0.00,,---,0.00,VWS V14.01,2013-09-29 01:12:00,
2013-09-28 21:17:00,58.6,56.6,30.23,ENE,60,0.0,0.0,93,0.00,,---,0.00,VWS V14.01,2013-09-29 01:17:00,
2013-09-28 21:20:00,58.6,56.6,30.22,ENE,60,0.0,0.0,93,0.00,,---,0.00,VWS V14.01,2013-09-29 01:20:00,
2013-09-28 21:22:00,58.5,56.5,30.22,ENE,60,0.0,0.0,93,0.00,,---,0.00,VWS V14.01,2013-09-29 01:22:00,
2013-09-28 21:27:00,58.4,56.7,30.22,ENE,60,0.0,0.0,94,0.00,,---,0.00,VWS V14.01,2013-09-29 01:27:00,
2013-09-28 21:30:00,58.4,56.7,30.22,ENE,60,0.0,0.0,94,0.00,,---,0.00,VWS V14.01,2013-09-29 01:30:00,
2013-09-28 21:32:00,58.3,56.6,30.22,ENE,60,0.0,0.0,94,0.00,,---,0.00,VWS V14.01,2013-09-29 01:32:00,
2013-09-28 21:37:00,58.2,56.5,30.22,ENE,60,0.0,0.0,94,0.00,,---,0.00,VWS V14.01,2013-09-29 01:37:00,
2013-09-28 21:40:00,58.2,56.5,30.22,ENE,59,0.0,0.0,94,0.00,,---,0.00,VWS V14.01,2013-09-29 01:40:00,
2013-09-28 21:42:00,58.1,56.4,30.22,ENE,60,0.0,0.0,94,0.00,,---,0.00,VWS V14.01,2013-09-29 01:42:00,
2013-09-28 21:47:00,57.9,56.2,30.22,ENE,60,0.0,0.0,94,0.00,,---,0.00,VWS V14.01,2013-09-29 01:47:00,
2013-09-28 21:50:00,57.9,56.2,30.22,ENE,60,0.0,0.0,94,0.00,,---,0.00,VWS V14.01,2013-09-29 01:50:00,
2013-09-28 21:52:00,57.8,56.1,30.21,ENE,60,0.0,0.0,94,0.00,,---,0.00,VWS V14.01,2013-09-29 01:52:00,
2013-09-28 21:57:00,57.6,55.9,30.22,ENE,61,0.0,0.0,94,0.00,,---,0.00,VWS V14.01,2013-09-29 01:57:00,
2013-09-28 22:00:00,57.6,55.9,30.22,ENE,61,0.0,0.0,94,0.00,,---,0.00,VWS V14.01,2013-09-29 02:00:00,
2013-09-28 22:03:00,57.4,55.7,30.22,ENE,60,0.0,0.0,94,0.00,,---,0.00,VWS V14.01,2013-09-29 02:03:00,
2013-09-28 22:08:00,57.0,55.3,30.21,ENE,60,0.0,1.0,94,0.00,,---,0.00,VWS V14.01,2013-09-29 02:08:00,
2013-09-28 22:10:00,57.0,55.3,30.21,ENE,60,0.0,1.0,94,0.00,,---,0.00,VWS V14.01,2013-09-29 02:10:00,
2013-09-28 22:13:00,56.7,55.0,30.21,East,82,0.0,1.0,94,0.00,,---,0.00,VWS V14.01,2013-09-29 02:13:00,
2013-09-28 22:18:00,56.3,54.6,30.21,East,80,0.0,1.0,94,0.00,,---,0.00,VWS V14.01,2013-09-29 02:18:00,
2013-09-28 22:20:00,56.2,54.8,30.22,East,81,0.0,1.0,95,0.00,,---,0.00,VWS V14.01,2013-09-29 02:20:00,
2013-09-28 22:23:00,56.2,54.8,30.21,East,81,0.0,0.0,95,0.00,,---,0.00,VWS V14.01,2013-09-29 02:23:00,
2013-09-28 22:28:00,55.8,54.4,30.22,East,80,0.0,0.0,95,0.00,,---,0.00,VWS V14.01,2013-09-29 02:28:00,
2013-09-28 22:30:00,55.7,54.3,30.22,East,80,0.0,0.0,95,0.00,,---,0.00,VWS V14.01,2013-09-29 02:30:00,
2013-09-28 22:33:00,55.5,54.1,30.21,East,80,0.0,0.0,95,0.00,,---,0.00,VWS V14.01,2013-09-29 02:33:00,
2013-09-28 22:38:00,55.2,54.1,30.21,East,81,0.0,0.0,96,0.00,,---,0.00,VWS V14.01,2013-09-29 02:38:00,
2013-09-28 22:40:00,55.2,54.1,30.21,East,80,0.0,0.0,96,0.00,,---,0.00,VWS V14.01,2013-09-29 02:40:00,
2013-09-28 22:43:00,54.9,53.8,30.21,East,80,0.0,0.0,96,0.00,,---,0.00,VWS V14.01,2013-09-29 02:43:00,
2013-09-28 22:48:00,54.7,53.6,30.21,East,80,0.0,0.0,96,0.00,,---,0.00,VWS V14.01,2013-09-29 02:48:00,
2013-09-28 22:50:00,54.6,53.5,30.21,East,80,0.0,0.0,96,0.00,,---,0.00,VWS V14.01,2013-09-29 02:50:00,
2013-09-28 22:53:00,54.4,53.3,30.21,East,80,0.0,0.0,96,0.00,,---,0.00,VWS V14.01,2013-09-29 02:53:00,
2013-09-28 22:58:00,54.2,53.1,30.21,East,81,0.0,0.0,96,0.00,,---,0.00,VWS V14.01,2013-09-29 02:58:00,
2013-09-28 23:00:00,54.2,53.1,30.21,East,80,0.0,0.0,96,0.00,,---,0.00,VWS V14.01,2013-09-29 03:00:00,
2013-09-28 23:03:00,54.0,52.9,30.21,East,80,0.0,0.0,96,0.00,,---,0.00,VWS V14.01,2013-09-29 03:03:00,
2013-09-28 23:08:00,53.8,53.0,30.21,East,80,0.0,0.0,97,0.00,,---,0.00,VWS V14.01,2013-09-29 03:08:00,
2013-09-28 23:10:00,53.8,53.0,30.21,East,80,0.0,0.0,97,0.00,,---,0.00,VWS V14.01,2013-09-29 03:10:00,
2013-09-28 23:13:00,53.7,52.9,30.21,East,80,0.0,0.0,97,0.00,,---,0.00,VWS V14.01,2013-09-29 03:13:00,
2013-09-28 23:18:00,53.7,52.9,30.21,ESE,105,0.0,1.0,97,0.00,,---,0.00,VWS V14.01,2013-09-29 03:18:00,
2013-09-28 23:20:00,53.7,52.9,30.21,ESE,105,0.0,1.0,97,0.00,,---,0.00,VWS V14.01,2013-09-29 03:20:00,
2013-09-28 23:23:00,53.4,52.3,30.21,ESE,105,0.0,0.0,96,0.00,,---,0.00,VWS V14.01,2013-09-29 03:23:00,
2013-09-28 23:28:00,53.2,52.4,30.21,ESE,105,0.0,0.0,97,0.00,,---,0.00,VWS V14.01,2013-09-29 03:28:00,
2013-09-28 23:30:00,53.2,52.4,30.21,ESE,105,0.0,0.0,97,0.00,,---,0.00,VWS V14.01,2013-09-29 03:30:00,
2013-09-28 23:33:00,53.2,52.4,30.21,NNW,342,0.0,1.0,97,0.00,,---,0.00,VWS V14.01,2013-09-29 03:33:00,
2013-09-28 23:38:00,53.3,52.5,30.21,ESE,122,2.0,2.0,97,0.00,,---,0.00,VWS V14.01,2013-09-29 03:38:00,
2013-09-28 23:40:00,53.2,52.4,30.21,SE,125,1.0,2.0,97,0.00,,---,0.00,VWS V14.01,2013-09-29 03:40:00,
2013-09-28 23:43:00,52.9,52.1,30.20,SE,125,0.0,1.0,97,0.00,,---,0.00,VWS V14.01,2013-09-29 03:43:00,
2013-09-28 23:48:00,52.7,51.9,30.21,SE,125,0.0,1.0,97,0.00,,---,0.00,VWS V14.01,2013-09-29 03:48:00,
2013-09-28 23:50:00,52.7,51.9,30.21,SE,125,0.0,1.0,97,0.00,,---,0.00,VWS V14.01,2013-09-29 03:50:00,
2013-09-28 23:53:00,52.8,52.0,30.21,SE,124,0.0,1.0,97,0.00,,---,0.00,VWS V14.01,2013-09-29 03:53:00,
2013-09-28 23:58:00,52.8,52.0,30.21,SE,124,0.0,1.0,97,0.00,,---,0.00,VWS V14.01,2013-09-29 03:58:00,